Location: Franzen
(48.6167°N, 15.3833°E)
Time: 13:09:50
(UTC+00:00)

Aureole 1 Rocket - Pass Details

Date: 22 April 2021
Orbit: 379 x 1372 km, 73.9° (Epoch: 16 May)

Event Time Altitude Azimuth Distance (km) Brightness Sun altitude
Exits shadow 20:35:04 42° 111° (ESE) 1,099 3.9 -21.3°
Maximum altitude 20:35:10 42° 108° (ESE) 1,095 3.9 -21.3°
Drops below altitude 10° 20:39:33 10° 37° (NE) 2,063 5.9 -21.8°
Sets 20:41:37 0° 31° (NNE) 2,844 6.8 -22.0°
